NOAA NWS Hourly Roundups by Site

Regional Weather Roundup for Green Bay, WI

To Select Another Site Choose from List

Select Site:  

000
ASUS43 KGRB 252111
RWRGRB

NORTH-CENTRAL AND NORTHEAST WISCONSIN REGIONAL WEATHER ROUNDUP
NATIONAL WEATHER SERVICE GREEN BAY WI
400 PM CDT MON MAR 25 2019

WIZ005-009-010>012-018-019-252200-
NORTH CENTRAL WISCONSIN

CITY           SKY/WX    TMP DP  RH WIND       PRES   REMARKS
IRONWOOD       FAIR      35   6  29 NW10      30.35F
MANITOWISH WTR NOT AVBL
ARBOR VITAE    FAIR      39  -3  17 W6        30.30S
EAGLE RIVER    FAIR      38  -2  18 NW14      30.29S
LAND O LAKES   FAIR      39  -6  15 NW6       30.31S
RHINELANDER    FAIR      40  -4  15 N8        30.30F
PHILLIPS       FAIR      38  -2  18 CALM      30.31F
ANTIGO         FAIR      37   6  27 CALM      30.30F
TOMAHAWK       FAIR      40  -6  14 NW9       30.31F
MERRILL        FAIR      40  -1  17 NW5       30.32S
$$

WIZ013-073-252200-
NORTHEAST WISCONSIN

CITY           SKY/WX    TMP DP  RH WIND       PRES   REMARKS
IRON MOUNTAIN  FAIR      40   4  22 NW13      30.28F
MARINETTE      FAIR      36  16  44 S9        30.34F
OCONTO         FAIR      37  14  38 SE9       30.33F
$$

WIZ017-030-035>037-045-252200-
CENTRAL WISCONSIN

CITY           SKY/WX    TMP DP  RH WIND       PRES   REMARKS
MEDFORD        FAIR      36   3  25 SW5       30.31F
WAUSAU         FAIR      40  -1  18 VRB3      30.30F
MOSINEE        MOSUNNY   39   7  26 NW7       30.33F
MARSHFIELD     FAIR      40   7  25 N9        30.32F
WISC RAPIDS    FAIR      42   7  23 VRB3      30.34S
STEVENS POINT  FAIR      40   3  20 NW3       30.33S
WAUPACA        FAIR      45   3  17 E6        30.34F
SHAWANO        FAIR      49  11  21 S3        30.32S
CLINTONVILLE   FAIR      42   5  21 SW3       30.33S
WAUTOMA        FAIR      42   5  21 SE6       30.33F
$$

WIZ038-039-048-051-252200-
FOX VALLEY

CITY           SKY/WX    TMP DP  RH WIND       PRES   REMARKS
NWS GREEN BAY  FAIR      43  11  27 MISG      30.34F
APPLETON       SUNNY     39   1  20 NW6       30.32F
OSHKOSH        FAIR      38  11  32 E7        30.34F
FOND DU LAC    FAIR      39  14  36 NE9       30.34F
$$

WIZ022-050-052-252200-
EAST CENTRAL WISCONSIN

CITY           SKY/WX    TMP DP  RH WIND       PRES   REMARKS
EPHRAIM        FAIR      36  12  36 NE6       30.32F
WASHINGTON ISL FAIR      34  12  40 SW6       30.33S
STURGEON BAY   FAIR      38  11  32 NW6       30.34F
MANITOWOC      FAIR      36  19  50 VRB3      30.35F
SHEBOYGAN      FAIR      36  22  56 NE9       30.34F
$$

LMZ563-521-522-541>543-252200-
LAKESHORE

STATION/POSITION TIME  TEMP    WIND        PRES    VSBY  WAVE
                       AIR SEA DIR/SP/G                  HT/PER
                 (UTC) (F)     (DEG/KT/KT) (MB)    (MI)  (FT/S)
SHEBOYGAN LKSHOR 2100   31      40/ 11/ 12 1028.5F
KEWAUNEE LKSHORE 2036   33      80/  6/  8 1026.9F
NORTHPORT PIER   2030   32     140/  3/  4 1027.1F
SISTER BAY LKSHO 2022   43        CALM       N/A
MENOMINEE LKSHOR 2036   30 35  150/ 11/ 12 1026.8F
$$


 

View Past Reports for Green Bay, WI.

Products Courtesy of NOAA-NWS
NWS Information Parsing Script by Ken True at Saratoga Weather - Script by SE Lincoln Weather.